Regional Weather Roundup
Issued by NWS Raleigh/Durham, NC

Home | Current Version | Previous Version | Text Only | Print | Product List | Glossary On
Versions: 1 2 3 4 5 6 7 8 9 10 11 12 13 14 15 16 17 18 19 20 21 22 23 24 25 26 27 28 29 30 31 32 33 34 35 36 37 38 39 40 41 42 43 44 45 46 47 48 49 50
000
ASUS42 KRAH 061910
RWRRAH
NORTH CAROLINA WEATHER ROUNDUP
NATIONAL WEATHER SERVICE RALEIGH NC
200 PM EST SAT FEB 06 2016

NOTE: "FAIR" INDICATES FEW OR NO CLOUDS BELOW 12,000 FEET WITH NO
SIGNIFICANT WEATHER AND/OR OBSTRUCTIONS TO VISIBILITY.

NCZ001-053-055-056-065-067-062000-
WESTERN NORTH CAROLINA

CITY           SKY/WX    TMP DP  RH WIND       PRES   REMARKS
ASHEVILLE      SUNNY     43  11  27 NW10      30.27F
JEFFERSON      MOSUNNY   37   1  22 W7        30.23F WCI  32
MORGANTON      MOSUNNY   44  12  27 CALM      30.34F
HICKORY        MOSUNNY   43  13  29 CALM      30.30F
RUTHERFORDTON  SUNNY     47  14  27 CALM      30.30F
MOUNT AIRY     SUNNY     44  11  26 CALM      30.32F
BOONE          MOSUNNY   36   3  24 NW8G17    30.23F WCI  30
$$

NCZ021-022-025-041-071-084-088-062000-
CENTRAL NORTH CAROLINA

CITY           SKY/WX    TMP DP  RH WIND       PRES   REMARKS
CHARLOTTE      MOSUNNY   49  15  25 NW6       30.32F
GREENSBORO     MOSUNNY   47  12  24 NW8       30.30F
WINSTON-SALEM  SUNNY     44  12  27 SW5       30.32F
RALEIGH-DURHAM MOSUNNY   47  19  33 W9        30.34F
FORT BRAGG     SUNNY     49  16  27 NE5       30.31F
FAYETTEVILLE   SUNNY     50  20  30 N10       30.31F
BURLINGTON     SUNNY     45  16  31 CALM      30.32F
LAURINBURG     SUNNY     50  18  28 NE8       30.32F
$$

NCZ011-015-027-028-043-044-047-080-103-062000-
NORTHEASTERN NORTH CAROLINA

CITY           SKY/WX    TMP DP  RH WIND       PRES   REMARKS
ROCKY MT-WILSO SUNNY     47  20  34 N5        30.34F
GREENVILLE     SUNNY     45  23  42 NE9       30.35F HAZE
WASHINGTON     PTSUNNY   46  28  48 CALM      30.34F
ELIZABETH CITY CLOUDY    45  26  47 N8        30.36F
MANTEO         PTSUNNY   44  32  62 NE10      30.36F
CAPE HATTERAS  CLOUDY    47  35  63 NE9G20    30.33F
$$

NCZ078-087-090-091-093-098-101-062000-
SOUTHEASTERN NORTH CAROLINA

CITY           SKY/WX    TMP DP  RH WIND       PRES   REMARKS
LUMBERTON      SUNNY     50  23  34 NE14      30.31F
GOLDSBORO      SUNNY     48  21  34 N6        30.32F
KINSTON        SUNNY     46  25  42 N8        30.35F
KENANSVILLE      N/A     47  22  36 N3        30.34F
NEW BERN       PTSUNNY   49  25  39 NE12      30.33F
CHERRY POINT   CLOUDY    48  29  47 NE10      30.33F
BEAUFORT       CLOUDY    47  32  56 NE9G20    30.32F
JACKSONVILLE   MOSUNNY   51  23  33 N9        30.31F
WILMINGTON     PTSUNNY   53  25  33 NE8       30.30F
$$




USA.gov is the U.S. government's official web portal to all federal, state and local government web resources and services.